STARLINK-3688, 52310

Orbit data source: Space-Track

STARLINK-3688, 52310 is a payload satellite owned by SpaceX/Seattle (US) in LEO that was launched on Thu, 21 Apr 2022 UTC via an FALCON 9 launch vehicle from the Air Force Eastern Test Range (AFETR). Payload-class satellites include a variety of spacecraft equipped with specific instruments for various scientific and technological missions. These include communications satellites like Starlink; space stations such as the ISS; scientific satellites like the Hubble; Earth observation satellites from companies like Planet Labs, Umbra, and HawkEye 360; GPS; miniature CubeSats for education and research; and military/defense satellites.

Loading next visibility...
Identifier
52310, 2022-041BB
Orbit
LEO
Country
Flag of USUS
Related business
Manufacturer
SpaceX/Seattle
Mission
Operational Commercial Communications
Bus & Motor
STARLINK, Unknown motor
Mass
297 kg wet, ~275 kg dry
Launch date (UTC)
2022-04-21 (4 years ago)
Launch vehicle
FALCON 9
Launch site
Air Force Eastern Test Range (AFETR)
Object type
Payload
Rocket body
Debris
Shape & HBR
Box + 1 Pan, 10.1 m
Radar Cross Section
11.087 m², Large (>1 m²)

Expand to show TLE details & history
Last TLE update: 6 hours ago

TLE from 6 hours ago
0 STARLINK-3688
1 52310U 22041BB  26193.15254152  .00001161  00000-0  49151-4 0  9999
2 52310  53.1583 247.2850 0001273  81.3968 278.7178 15.31705075234692
Epoch: 2026-07-12T03:39Z
TLE epoch observation values (Epoch: 2026-07-12T03:39:39.587Z)
Latitude
0.00002°
Longitude
-97.68544°
Altitude
471.493 km
Speed
7.632 km/s
True Right ascension
16h 29m 08s
True Declination
0° 00' 00"
Sunlit
Object was in full shadow at epoch
Visualization orbit readout
Latitude
Unknown
Longitude
Unknown
Altitude
Unknown
Speed
Unknown
Apparent Right ascension
Unknown
Apparent Declination
Unknown
Sunlit
N/A
Visualization observer readout
Local Sidereal Time
21:46:41
Azimuth
Unknown
Elevation
Unknown
Doppler factor
Unknown
Orbital elements
Apogee altitude
471.854 km
Perigee altitude
470.11 km
Semi-major axis
6,849.119 km
Eccentricity
0.00013
Inclination
53.1583°
RAAN
247.285°
Arg. of periapsis
81.3968°
True anomaly
278.70338°
Mean anomaly
278.7178°
Eccentric anomaly
278.71059°
Mean motion
3.82905 °/min
Orbital period
94.02 mins
BSTAR
0.000049151
Loading maneuver chart data...
Computing Atmospheric mass density...
Loading historical data...
Loading historical data...
Loading historical data...
Loading historical data...
Loading historical data...
Loading historical data...
Loading historical data...

Documentation

Showing up to 5 results
|